User: anonymous   Login
Location: Newark
(48.1500°N, 13.1167°E)
Time: 02:11:37
(UTC+00:00)
Language:

VELOX 1 - Orbit

View from above orbital plane
View from above orbital plane
View from above satellite
View from above satellite

Ground track
Ground track

The orbit data is extracted from the following two-line orbital elements,

1 40057U 14034E   21332.33720490  .00000591  00000-0  88902-4 0  9993
2 40057  98.3455 132.2343 0009764 251.0675 108.9482 14.78384239399756
Epoch (UTC): 28 November 2021 08:05:34
Eccentricity: 0.0009764
inclination: 98.3455°
perigee height: 627 km
apogee height: 641 km
right ascension of ascending node: 132.2343°
argument of perigee: 251.0675°
revolutions per day: 14.78384239
mean anomaly at epoch: 108.9482°
orbit number at epoch: 39975

The dashed part of the orbit path shows where the satellite is in the earth's shadow,  

DLR